�������l�o���
Date,Time,MP-1(��Sv/h),MP-2(��Sv/h),MP-3(��Sv/h),MP-4(��Sv/h),MP-5(��Sv/h),MP-6(��Sv/h),MP-7(��Sv/h),MP-8(��Sv/h),����,����(m/s),���J
2015/03/10,00:00,1.792,3.107,3.267,3.097,2.818,1.042,1.687,1.803,��쓌,9.9,�L
2015/03/10,00:10,1.785,3.085,3.257,3.082,2.803,1.037,1.687,1.805,��,9.6,�L
2015/03/10,00:20,1.790,3.112,3.282,3.097,2.835,1.043,1.688,1.807,��,9.1,��
2015/03/10,00:30,1.800,3.143,3.305,3.115,2.865,1.045,1.695,1.812,��,8.5,��
2015/03/10,00:40,1.808,3.162,3.322,3.130,2.892,1.045,1.697,1.812,��,8.0,�L
2015/03/10,00:50,1.815,3.172,3.340,3.138,2.907,1.050,1.702,1.813,��,8.0,�L
2015/03/10,01:00,1.813,3.167,3.340,3.137,2.917,1.047,1.700,1.815,��,6.5,�L
2015/03/10,01:10,1.810,3.158,3.343,3.137,2.922,1.048,1.702,1.813,��,6.5,�L
2015/03/10,01:20,1.813,3.153,3.343,3.142,2.925,1.048,1.702,1.817,��,7.1,�L
2015/03/10,01:30,1.812,3.148,3.347,3.137,2.933,1.047,1.700,1.815,��,7.2,�L
2015/03/10,01:40,1.808,3.150,3.358,3.138,2.940,1.045,1.702,1.817,��쐼,6.6,�L
2015/03/10,01:50,1.810,3.150,3.360,3.142,2.947,1.048,1.702,1.815,���쐼,7.1,�L
2015/03/10,02:00,1.808,3.153,3.363,3.143,2.955,1.048,1.703,1.818,��,8.8,�L
2015/03/10,02:10,1.807,3.158,3.372,3.147,2.963,1.047,1.707,1.820,���k��,11.6,�L
2015/03/10,02:20,1.808,3.163,3.377,3.148,2.972,1.047,1.705,1.818,��,10.1,�L
2015/03/10,02:30,1.812,3.165,3.380,3.153,2.978,1.048,1.707,1.818,��,9.4,�L
2015/03/10,02:40,1.810,3.167,3.383,3.157,2.985,1.045,1.705,1.817,��,7.5,�L
2015/03/10,02:50,1.810,3.170,3.390,3.157,2.993,1.047,1.707,1.817,��,5.7,�L
2015/03/10,03:00,1.812,3.167,3.390,3.160,3.005,1.047,1.707,1.820,��,4.0,�L
2015/03/10,03:10,1.807,3.160,3.390,3.157,3.010,1.048,1.705,1.822,���k��,4.0,�L
2015/03/10,03:20,1.810,3.158,3.393,3.160,3.015,1.048,1.707,1.820,���k��,5.5,�L
2015/03/10,03:30,1.808,3.167,3.398,3.163,3.017,1.047,1.707,1.820,���k��,7.4,�L
2015/03/10,03:40,1.808,3.168,3.398,3.165,3.025,1.047,1.707,1.820,���k��,6.7,�L
2015/03/10,03:50,1.810,3.163,3.402,3.168,3.028,1.048,1.708,1.820,���k��,6.6,�L
2015/03/10,04:00,1.805,3.165,3.400,3.163,3.037,1.047,1.707,1.822,���k��,7.1,�L
2015/03/10,04:10,1.815,3.168,3.407,3.167,3.038,1.052,1.710,1.822,���k��,7.1,�L
2015/03/10,04:20,1.813,3.175,3.408,3.167,3.047,1.050,1.710,1.818,���k��,8.2,�L
2015/03/10,04:30,1.812,3.175,3.412,3.172,3.050,1.050,1.712,1.823,�k��,7.4,�L
2015/03/10,04:40,1.813,3.177,3.415,3.175,3.053,1.052,1.713,1.825,���k��,7.1,�L
2015/03/10,04:50,1.818,3.185,3.422,3.173,3.060,1.050,1.717,1.825,���k��,6.6,�L
2015/03/10,05:00,1.820,3.187,3.425,3.180,3.070,1.052,1.717,1.825,���k��,7.2,�L
2015/03/10,05:10,1.823,3.193,3.430,3.182,3.077,1.050,1.718,1.823,���k��,6.3,�L
2015/03/10,05:20,1.827,3.197,3.437,3.182,3.087,1.053,1.717,1.827,���k��,7.4,�L
2015/03/10,05:30,1.830,3.198,3.438,3.185,3.090,1.057,1.720,1.825,�k��,6.6,��
2015/03/10,05:40,1.828,3.198,3.448,3.185,3.100,1.055,1.725,1.827,�k��,5.5,��
2015/03/10,05:50,1.830,3.205,3.448,3.190,3.105,1.052,1.725,1.825,�k��,4.9,��
2015/03/10,06:00,1.828,3.210,3.455,3.188,3.112,1.050,1.725,1.827,�k��,4.4,��
2015/03/10,06:10,1.823,3.215,3.458,3.193,3.118,1.050,1.725,1.828,���k��,5.8,��
2015/03/10,06:20,1.828,3.212,3.462,3.192,3.123,1.052,1.723,1.830,�k��,7.4,��
2015/03/10,06:30,1.828,3.218,3.465,3.197,3.132,1.050,1.730,1.828,�k��,6.8,��
2015/03/10,06:40,1.833,3.217,3.463,3.197,3.133,1.052,1.728,1.833,�k��,6.4,��
2015/03/10,06:50,1.833,3.222,3.472,3.198,3.138,1.050,1.730,1.832,�k��,7.4,��
2015/03/10,07:00,1.835,3.227,3.480,3.208,3.147,1.045,1.730,1.830,�k��,9.3,��
2015/03/10,07:10,1.838,3.227,3.482,3.208,3.150,1.043,1.730,1.833,�k��,8.2,��
2015/03/10,07:20,1.837,3.230,3.487,3.212,3.155,1.040,1.730,1.832,�k�k��,10.1,��
2015/03/10,07:30,1.837,3.232,3.492,3.215,3.158,1.037,1.732,1.833,�k��,10.2,��
2015/03/10,07:40,1.838,3.240,3.497,3.213,3.165,1.035,1.733,1.833,�k��,10.4,��
2015/03/10,07:50,1.842,3.243,3.500,3.222,3.170,1.037,1.738,1.837,�k��,11.0,��
2015/03/10,08:00,1.842,3.245,3.503,3.218,3.170,1.035,1.740,1.835,�k��,8.8,��
2015/03/10,08:10,1.843,3.242,3.507,3.225,3.173,1.035,1.737,1.835,�k��,9.3,��
2015/03/10,08:20,1.843,3.252,3.510,3.228,3.182,1.037,1.738,1.832,�k��,7.5,��
2015/03/10,08:30,1.842,3.253,3.515,3.233,3.190,1.033,1.742,1.835,�k��,7.7,��
2015/03/10,08:40,1.847,3.255,3.522,3.233,3.193,1.035,1.742,1.837,�k��,7.4,��
2015/03/10,08:50,1.847,3.260,3.527,3.237,3.203,1.032,1.743,1.837,�k��,8.6,��
2015/03/10,09:00,1.848,3.257,3.530,3.238,3.207,1.033,1.745,1.837,���k��,6.9,��
2015/03/10,09:10,1.845,3.267,3.530,3.242,3.208,1.037,1.743,1.842,���k��,7.1,��
2015/03/10,09:20,1.848,3.268,3.533,3.245,3.213,1.033,1.745,1.838,�k��,5.4,��
2015/03/10,09:30,1.848,3.268,3.532,3.248,3.218,1.033,1.750,1.840,���k��,6.0,��
2015/03/10,09:40,-,3.270,3.540,3.248,3.225,1.035,1.748,1.840,�k��,7.7,��
2015/03/10,09:50,-,3.262,3.543,3.250,3.230,1.037,1.750,1.842,���k��,5.3,��
2015/03/10,10:00,-,3.258,3.548,3.253,3.230,1.035,1.747,1.840,���k��,8.6,��
2015/03/10,10:10,-,3.268,3.553,3.250,3.237,1.038,1.748,1.842,���k��,9.1,��
2015/03/10,10:20,-,3.270,3.553,3.255,3.240,1.037,1.748,1.838,���k��,9.3,��
2015/03/10,10:30,-,3.270,3.560,3.257,3.242,1.037,1.752,1.842,���k��,10.5,��
2015/03/10,10:40,-,3.277,3.558,3.257,3.243,1.037,1.752,1.843,���k��,13.0,��
2015/03/10,10:50,-,3.277,3.563,3.258,3.245,1.037,1.753,1.847,���k��,8.2,��
2015/03/10,11:00,-,3.285,3.570,3.262,3.250,1.037,1.755,1.843,���k��,10.4,��
2015/03/10,11:10,-,3.287,3.575,3.268,3.258,1.040,1.757,1.845,��,9.7,��
2015/03/10,11:20,1.845,3.292,3.577,3.267,3.265,1.038,1.757,1.845,��,9.6,��
2015/03/10,11:30,1.842,3.293,3.580,3.267,3.270,1.042,1.755,1.848,��,9.9,��
2015/03/10,11:40,1.837,3.298,3.587,3.268,3.275,1.040,1.758,1.845,���k��,11.3,��
2015/03/10,11:50,1.840,3.303,3.587,3.272,3.282,1.042,1.758,1.847,��,9.9,��
2015/03/10,12:00,1.857,3.300,3.588,3.270,3.283,1.040,1.760,1.847,��,10.2,��
2015/03/10,12:10,1.857,3.305,3.598,3.273,3.287,1.045,1.758,1.850,��,13.0,��
2015/03/10,12:20,1.858,3.305,3.597,3.278,3.290,1.045,1.760,1.848,��,11.8,��
2015/03/10,12:30,1.865,3.308,3.602,3.282,3.295,1.045,1.760,1.847,���쐼,15.4,��
2015/03/10,12:40,1.862,3.313,3.592,3.280,3.303,1.043,1.758,1.847,��,16.3,��
2015/03/10,12:50,1.863,3.317,3.592,3.282,3.303,1.043,1.762,1.847,���쐼,14.6,��
2015/03/10,13:00,1.862,3.317,3.608,3.283,3.308,1.043,1.762,1.848,��,14.9,��
2015/03/10,13:10,1.865,3.312,3.608,3.287,3.308,1.045,1.762,1.850,��,10.4,��
2015/03/10,13:20,1.868,3.315,3.613,3.282,3.313,1.047,1.762,1.855,��,17.3,��
2015/03/10,13:30,1.865,3.317,3.613,3.285,3.315,1.045,1.762,1.853,��,11.2,��
2015/03/10,13:40,1.867,3.327,3.618,3.285,3.318,1.045,1.763,1.850,��,18.4,��
2015/03/10,13:50,1.868,3.340,3.617,3.287,3.322,1.047,1.762,1.852,��,17.3,��
2015/03/10,14:00,1.867,3.338,3.622,3.292,3.320,1.050,1.763,1.853,��,16.7,��
2015/03/10,14:10,1.867,3.340,3.627,3.288,3.325,1.052,1.765,1.852,��,12.1,��
2015/03/10,14:20,1.868,3.338,3.627,3.290,3.330,1.053,1.765,1.852,���k��,10.5,��
2015/03/10,14:30,1.868,3.345,3.628,3.292,3.335,1.057,1.765,1.855,��,8.8,��
2015/03/10,14:40,1.868,3.347,3.630,3.293,3.332,1.055,1.763,1.850,���k��,14.1,��
2015/03/10,14:50,1.870,3.347,3.630,3.293,3.333,1.055,1.765,1.853,���k��,11.6,��
2015/03/10,15:00,1.872,3.350,3.632,3.290,3.335,1.057,1.768,1.852,���k��,6.3,��
2015/03/10,15:10,-,3.347,3.637,3.293,3.337,1.058,1.765,1.852,���k��,10.4,��
2015/03/10,15:20,-,3.350,3.633,3.293,3.342,1.057,1.767,1.855,���k��,9.1,��
2015/03/10,15:30,-,3.353,3.635,3.295,3.343,1.058,1.767,1.852,���k��,7.7,��
2015/03/10,15:40,-,3.350,3.632,3.295,3.340,1.060,1.763,1.853,���k��,9.9,��
2015/03/10,15:50,-,3.353,3.633,3.295,3.338,1.063,1.767,1.853,���k��,8.3,��
2015/03/10,16:00,-,3.353,3.633,3.293,3.342,1.063,1.768,1.853,���k��,9.3,��
2015/03/10,16:10,-,3.355,3.635,3.298,3.342,1.065,1.768,1.853,���k��,7.7,��
2015/03/10,16:20,-,3.358,3.638,3.298,3.347,1.065,1.768,1.853,���k��,9.4,��
2015/03/10,16:30,-,3.355,3.640,3.298,3.352,1.067,1.765,1.853,���k��,9.6,��
2015/03/10,16:40,-,3.355,3.640,3.295,3.347,1.067,1.768,1.852,���k��,5.8,��
2015/03/10,16:50,1.870,3.350,3.637,3.298,3.348,1.067,1.767,1.852,��,6.3,��
2015/03/10,17:00,1.873,3.353,3.638,3.298,3.348,1.065,1.767,1.852,���k��,8.3,��
2015/03/10,17:10,1.873,3.357,3.640,3.300,3.350,1.065,1.767,1.853,��,2.5,��
2015/03/10,17:20,1.872,3.353,3.643,3.298,3.352,1.065,1.768,1.852,��,6.6,��
2015/03/10,17:30,1.872,3.357,3.642,3.298,3.355,1.065,1.768,1.852,���k��,5.3,��
2015/03/10,17:40,1.868,3.357,3.642,3.302,3.353,1.065,1.767,1.853,���k��,7.5,��
2015/03/10,17:50,1.868,3.355,3.640,3.303,3.352,1.065,1.767,1.855,��,9.6,��
2015/03/10,18:00,1.868,3.355,3.638,3.298,3.350,1.063,1.768,1.853,��,13.0,��
2015/03/10,18:10,1.868,3.357,3.642,3.302,3.357,1.063,1.767,1.855,��,9.9,��
2015/03/10,18:20,1.868,3.357,3.643,3.302,3.362,1.067,1.768,1.853,��,7.7,��
2015/03/10,18:30,1.868,3.355,3.640,3.303,3.358,1.065,1.770,1.853,��,6.1,��
2015/03/10,18:40,1.870,3.360,3.645,3.302,3.360,1.068,1.767,1.853,���쐼,6.8,��
2015/03/10,18:50,1.868,3.357,3.645,3.302,3.362,1.067,1.768,1.855,��,8.0,��
2015/03/10,19:00,1.865,3.355,3.650,3.303,3.360,1.063,1.765,1.855,��,8.5,��
2015/03/10,19:10,1.865,3.355,3.647,3.302,3.362,1.065,1.767,1.855,��,9.1,��
2015/03/10,19:20,1.868,3.357,3.645,3.307,3.362,1.065,1.765,1.857,��,8.3,��
2015/03/10,19:30,1.865,3.360,3.648,3.303,3.362,1.070,1.768,1.853,��,10.5,��
2015/03/10,19:40,1.870,3.355,3.648,3.303,3.363,1.070,1.765,1.853,��,8.9,��
2015/03/10,19:50,1.870,3.358,3.650,3.303,3.363,1.067,1.767,1.853,��,10.2,��
2015/03/10,20:00,1.868,3.362,3.650,3.305,3.363,1.067,1.767,1.853,���쐼,14.5,��
2015/03/10,20:10,1.865,3.362,3.648,3.308,3.365,1.068,1.767,1.855,��,15.7,��
2015/03/10,20:20,1.862,3.362,3.650,3.305,3.363,1.067,1.767,1.855,���쐼,17.0,��
2015/03/10,20:30,1.867,3.358,3.652,3.307,3.367,1.063,1.767,1.855,��,17.1,��
2015/03/10,20:40,1.870,3.357,3.650,3.308,3.370,1.067,1.768,1.857,��,16.0,��
2015/03/10,20:50,1.872,3.360,3.647,3.307,3.367,1.067,1.765,1.855,��,10.7,��
2015/03/10,21:00,1.867,3.357,3.647,3.303,3.370,1.065,1.767,1.857,��,10.2,��
2015/03/10,21:10,1.863,3.360,3.652,3.308,3.368,1.068,1.768,1.855,��,8.5,��
2015/03/10,21:20,1.865,3.358,3.647,3.305,3.370,1.065,1.763,1.853,��,8.8,��
2015/03/10,21:30,1.863,3.355,3.645,3.305,3.373,1.065,1.767,1.858,��,11.0,��
2015/03/10,21:40,1.867,3.355,3.648,3.305,3.373,1.065,1.763,1.855,��,8.3,��
2015/03/10,21:50,1.867,3.357,3.648,3.305,3.373,1.065,1.767,1.855,���쐼,11.3,��
2015/03/10,22:00,1.865,3.355,3.648,3.307,3.372,1.067,1.768,1.855,���쐼,10.5,��
2015/03/10,22:10,1.867,3.358,3.648,3.308,3.372,1.065,1.767,1.858,���쐼,11.5,��
2015/03/10,22:20,1.863,3.357,3.645,3.305,3.375,1.065,1.768,1.857,���쐼,9.7,��
2015/03/10,22:30,1.863,3.353,3.647,3.307,3.373,1.068,1.763,1.858,���쐼,9.6,��
2015/03/10,22:40,1.860,3.357,3.647,3.305,3.377,1.068,1.763,1.855,���쐼,9.7,��
2015/03/10,22:50,1.863,3.360,3.647,3.308,3.373,1.065,1.763,1.858,���쐼,7.2,��
2015/03/10,23:00,1.863,3.357,3.647,3.307,3.368,1.067,1.765,1.855,���쐼,9.3,��
2015/03/10,23:10,1.860,3.355,3.648,3.303,3.373,1.063,1.767,1.855,���쐼,7.1,��
2015/03/10,23:20,1.863,3.357,3.648,3.305,3.377,1.063,1.765,1.858,��,9.4,��
2015/03/10,23:30,1.865,3.357,3.647,3.307,3.378,1.062,1.765,1.858,���쐼,9.3,��
2015/03/10,23:40,1.862,3.355,3.648,3.307,3.380,1.063,1.765,1.857,���쐼,8.9,��
2015/03/10,23:50,1.862,3.353,3.647,3.307,3.382,1.063,1.765,1.855,���쐼,8.3,��
